Weather History for Cape Girardeau, MO

Change the Weather History Date:

Friday, July 12, 2013

  Actual Average Record
Temperature  
Mean Temperature 73 °F 79 °F  
Max Temperature 86 °F 90 °F 105 °F (1966)
Min Temperature 59 °F 68 °F 56 °F (1999)
Degree Days  
Heating Degree Days 0 0  
Month to date heating degree days 0 0  
Since 1 June heating degree days 0 4  
Since 1 July heating degree days 0 0  
Cooling Degree Days 8 14  
Month to date cooling degree days 121 165  
Year to date cooling degree days 625 629  
Since 1 June cooling degree days 454 477  
Growing Degree Days 22 (Base 50)    
Moisture  
Dew Point 59 °F    
Average Humidity 65    
Maximum Humidity 93    
Minimum Humidity 37    
Precipitation  
Precipitation 0.00 in 0.11 in 1.05 in (2011)
Month to date precipitation 0.05 1.32  
Year to date precipitation 23.98 25.99  
Sea Level Pressure  
Sea Level Pressure 30.05 in    
Wind  
Wind Speed 6 mph (NE)    
Max Wind Speed 15 mph    
Max Gust Speed 21 mph    
Visibility 10 miles    
Events      
T = Trace of Precipitation, MM = Missing Value Source: NWS Daily Summary

Daily Weather History Graph

Daily Weather History Graph

Search for Another Location

Airport:

Trip Planner

Search our weather history database for the weather conditions in past years. The results will help you decide how hot, cold, wet, or windy it might be!

Date:

Astronomy

Jul. 12, 2013 Rise Set
Actual Time 5:48 AM CDT 8:19 PM CDT
Civil Twilight 5:17 AM CDT 8:49 PM CDT
Nautical Twilight 4:40 AM CDT 9:27 PM CDT
Astronomical Twilight 3:58 AM CDT 10:08 PM CDT
Moon 9:58 AM CDT (7/12) 10:37 PM CDT (7/12)
Length of Visible Light 15h 32m
Length of Day
14h 31m
Waxing Crescent, 17% of the Moon is Illuminated
Jul 12
Waxing Crescent
Jul 15
First Quarter
Jul 22
Full
Jul 29
Last Quarter
Aug 6
New

Hourly Weather History & Observations

Time (CDT) Temp. Heat Index Dew Point Humidity Pressure Visibility Wind Dir Wind Speed Gust Speed Precip Events Conditions
12:53 AM 63.0 °F - 59.0 °F 87% 30.03 in 10.0 mi Calm Calm - N/A   Clear
1:53 AM 62.1 °F - 57.9 °F 86% 30.03 in 10.0 mi Calm Calm - N/A   Clear
2:53 AM 64.0 °F - 59.0 °F 84% 30.03 in 10.0 mi NNE 3.5 mph - N/A   Clear
3:53 AM 59.0 °F - 57.0 °F 93% 30.03 in 9.0 mi Calm Calm - N/A   Clear
4:53 AM 60.1 °F - 57.0 °F 90% 30.04 in 8.0 mi Calm Calm - N/A   Clear
5:53 AM 60.1 °F - 57.9 °F 93% 30.06 in 8.0 mi Calm Calm - N/A   Clear
6:53 AM 66.9 °F - 61.0 °F 81% 30.07 in 10.0 mi NE 4.6 mph - N/A   Clear
7:53 AM 70.0 °F - 60.1 °F 71% 30.08 in 10.0 mi NE 10.4 mph - N/A   Clear
8:53 AM 75.0 °F - 60.1 °F 60% 30.09 in 10.0 mi NE 8.1 mph - N/A   Clear
9:53 AM 77.0 °F - 59.0 °F 54% 30.09 in 10.0 mi ENE 9.2 mph - N/A   Clear
10:53 AM 81.0 °F 81.6 °F 60.1 °F 49% 30.09 in 10.0 mi NE 6.9 mph - N/A   Clear
11:53 AM 81.0 °F 80.8 °F 55.9 °F 42% 30.08 in 10.0 mi ENE 10.4 mph 18.4 mph N/A   Clear
12:53 PM 82.0 °F 81.6 °F 55.9 °F 41% 30.06 in 10.0 mi East 6.9 mph - N/A   Clear
1:53 PM 84.0 °F 83.0 °F 55.9 °F 38% 30.06 in 10.0 mi NE 15.0 mph 18.4 mph N/A   Clear
2:53 PM 82.9 °F 82.6 °F 57.9 °F 42% 30.04 in 10.0 mi ENE 6.9 mph 18.4 mph N/A   Clear
3:53 PM 84.9 °F 84.2 °F 57.9 °F 40% 30.03 in 10.0 mi NNE 12.7 mph 20.7 mph N/A   Clear
4:53 PM 84.9 °F 84.2 °F 57.9 °F 40% 30.02 in 10.0 mi NNE 9.2 mph - N/A   Clear
5:53 PM 84.0 °F 83.5 °F 57.9 °F 41% 30.01 in 10.0 mi NE 6.9 mph - N/A   Clear
6:53 PM 82.9 °F 82.8 °F 59.0 °F 44% 30.01 in 10.0 mi NE 6.9 mph - N/A   Clear
7:53 PM 79.0 °F - 57.9 °F 48% 30.01 in 10.0 mi NE 6.9 mph - N/A   Clear
8:53 PM 75.0 °F - 59.0 °F 57% 30.02 in 10.0 mi NNE 6.9 mph - N/A   Clear
9:53 PM 71.1 °F - 60.1 °F 68% 30.03 in 10.0 mi Calm Calm - N/A   Clear
10:53 PM 68.0 °F - 62.1 °F 81% 30.04 in 10.0 mi NE 3.5 mph - N/A   Clear
11:53 PM 69.1 °F - 63.0 °F 81% 30.04 in 10.0 mi Calm Calm - N/A   Clear